Burlington, IA

9:37 PM CST on February 05, 2016 (GMT -0600)
Burlington Regional

Weather History for KBRL - January, 2013

Change the Weather History Date:

Saturday, January 19, 2013

  Actual Average Record
Temperature  
Mean Temperature 41 °F 26 °F  
Max Temperature 54 °F 34 °F 64 °F (1952)
Min Temperature 27 °F 17 °F -21 °F (1985)
Degree Days  
Heating Degree Days 24 39  
Month to date heating degree days 689 741  
Since 1 July heating degree days 2882 2927  
Cooling Degree Days 0 0  
Month to date cooling degree days 0 0  
Year to date cooling degree days 0 0  
Moisture  
Dew Point 30 °F    
Average Humidity 61    
Maximum Humidity 76    
Minimum Humidity 46    
Precipitation  
Precipitation 0.00 in 0.03 in 0.29 in (1963)
Month to date precipitation 0.61 0.78  
Year to date precipitation 0.61 0.78  
Sea Level Pressure  
Sea Level Pressure 29.96 in    
Wind  
Wind Speed 14 mph (West)    
Max Wind Speed 25 mph    
Max Gust Speed 35 mph    
Visibility 10 miles    
Events      
T = Trace of Precipitation, MM = Missing Value Source: NWS Daily Summary

Daily Weather History Graph

Daily Weather History Graph

Search for Another Location

Airport or City:

Trip Planner

Search our weather history database for the weather conditions in past years. The results will help you decide how hot, cold, wet, or windy it might be!

Date:

Astronomy

Jan. 19, 2013 Rise Set
Actual Time 7:24 AM CST 5:06 PM CST
Civil Twilight 6:54 AM CST 5:36 PM CST
Nautical Twilight 6:21 AM CST 6:10 PM CST
Astronomical Twilight 5:48 AM CST 6:42 PM CST
Moon 11:33 AM CST (1/19) 12:58 AM CST (1/19)
Length of Visible Light 10h 41m
Length of Day
9h 42m
First Quarter, 57% of the Moon is Illuminated
Jan 19
First Quarter
Jan 26
Full
Feb 3
Last Quarter
Feb 10
New
Feb 17
First Quarter

Hourly Weather History & Observations

Time (CST) Temp. Windchill Dew Point Humidity Pressure Visibility Wind Dir Wind Speed Gust Speed Precip Events Conditions
12:53 AM 39.0 °F 31.8 °F 30.9 °F 73% 29.97 in 10.0 mi SW 11.5 mph - N/A   Clear
1:53 AM 37.9 °F 30.5 °F 30.0 °F 73% 29.97 in 10.0 mi SW 11.5 mph - N/A   Clear
2:53 AM 37.9 °F 30.0 °F 30.0 °F 73% 29.96 in 10.0 mi SW 12.7 mph - N/A   Clear
3:53 AM 37.9 °F 30.5 °F 30.0 °F 73% 29.94 in 10.0 mi SSW 11.5 mph - N/A   Clear
4:53 AM 37.9 °F 30.5 °F 30.0 °F 73% 29.92 in 10.0 mi SSW 11.5 mph - N/A   Clear
5:53 AM 37.9 °F 30.5 °F 30.9 °F 76% 29.91 in 10.0 mi SSW 11.5 mph - N/A   Clear
6:53 AM 37.0 °F 28.9 °F 30.9 °F 79% 29.91 in 10.0 mi SSW 12.7 mph - N/A   Clear
7:53 AM 37.9 °F 29.6 °F 30.9 °F 76% 29.90 in 10.0 mi SSW 13.8 mph - N/A   Clear
8:53 AM 41.0 °F 31.9 °F 32.0 °F 70% 29.90 in 10.0 mi SW 19.6 mph - N/A   Clear
9:53 AM 46.0 °F 38.5 °F 34.0 °F 63% 29.89 in 10.0 mi SW 19.6 mph 26.5 mph N/A   Clear
10:53 AM 48.0 °F - 35.1 °F 61% 29.88 in 10.0 mi SW 16.1 mph 26.5 mph N/A   Clear
11:53 AM 48.9 °F - 34.0 °F 56% 29.87 in 10.0 mi West 15.0 mph - N/A   Clear
12:53 PM 50.0 °F - 35.1 °F 57% 29.84 in 10.0 mi WSW 15.0 mph 25.3 mph N/A   Clear
1:53 PM 52.0 °F - 35.1 °F 53% 29.83 in 10.0 mi WSW 15.0 mph 25.3 mph N/A   Clear
2:53 PM 54.0 °F - 33.1 °F 45% 29.83 in 10.0 mi WSW 17.3 mph - N/A   Clear
3:53 PM 53.1 °F - 33.1 °F 47% 29.87 in 10.0 mi West 15.0 mph 21.9 mph N/A   Clear
4:53 PM 51.1 °F - 32.0 °F 48% 29.91 in 10.0 mi WNW 5.8 mph - N/A   Clear
5:53 PM 48.9 °F - 30.0 °F 48% 29.94 in 10.0 mi WNW 11.5 mph 23.0 mph N/A   Clear
6:53 PM 46.9 °F - 30.9 °F 54% 29.98 in 10.0 mi WNW 13.8 mph 20.7 mph N/A   Clear
7:53 PM 45.0 °F 38.5 °F 30.9 °F 58% 30.01 in 10.0 mi WNW 13.8 mph 21.9 mph N/A   Clear
8:53 PM 42.1 °F 35.2 °F 28.9 °F 60% 30.04 in 10.0 mi NW 12.7 mph 26.5 mph N/A   Clear
9:53 PM 39.0 °F 29.6 °F 27.0 °F 62% 30.07 in 10.0 mi WNW 18.4 mph 27.6 mph N/A   Partly Cloudy
10:53 PM 33.1 °F 21.5 °F 26.1 °F 75% 30.14 in 10.0 mi NNW 19.6 mph 32.2 mph N/A   Scattered Clouds
11:16 PM 28.4 °F 16.6 °F 21.2 °F 74% 30.15 in 10.0 mi NNW 16.1 mph 29.9 mph N/A   Mostly Cloudy
11:27 PM 28.4 °F 14.7 °F 17.6 °F 64% 30.16 in 10.0 mi NNW 21.9 mph 34.5 mph N/A   Mostly Cloudy
11:53 PM 27.0 °F 14.3 °F 14.0 °F 58% 30.19 in 10.0 mi NW 17.3 mph 32.2 mph N/A   Scattered Clouds